sat.trackr.live / text

‹ back to catalog

STARLINK-5869

NORAD 57061 · 2023-088P

PAYLOAD ACTIVE UNKNOWN

§ Identity

Operator
Country
US
Launch date
2023-06-22
Launch site
AFWTR
Launch vehicle
Mass (kg)
RCS (m²)

Purposes: comms

External: N2YO · Heavens-Above · Gunter

§ Orbital elements

Epoch: 2026-09-20T22:19:18.617376Z

Period
94.29 min
Inclination
43.0042°
Eccentricity
0.0001750
Mean motion
15.27253313 rev/d
Perigee alt
482.8 km
Apogee alt
485.2 km
Semi-major
6,862.2 km
B*
-6.2589e-3
RAAN
91.2947°
Arg perigee
269.2441°
Mean anomaly
90.8210°
Rev number
17,917

§ Raw data

STARLINK-58691 57061U 23088P   26263.93007659 -.00167002  00000+0 -62589-2 0  99972 57061  43.0042  91.2947 0001750 269.2441  90.8210 15.27253313179174

JSON: /api/v1/satellites/57061 · /tle

For live sub-satellite position, see the globe view (requires WebGL).

§ Visibility from observer

Set your observer location to see the next 7 days of passes ≥ 10°. The values pass through the URL so the page stays shareable.

No JS? Fill the form by hand. The geolocation button needs JavaScript.